QPF
0.00 0.00 0.00 0.00 0.00 0.00 0.00 0.00 0.00 0.00 0.00 0.00 0.00 0.00 0.00 0.00 0.02 0.04 0.15 0.15 0.06 0.20 0.20 0.02 0.06 0.07 0.04 0.00 0.02 0.02 0.01 0.00 0.00 0.04 0.06 0.05 0.00 0.01 0.03 0.03 0.02 0.09 0.11 0.00 0.00 0.00 0.00 0.00 0.00
0.00 0.00 0.00 0.00 0.00 0.00 0.00 0.00 0.00 0.00 0.00 0.00 0.00 0.00 0.00 0.01 0.03 0.07 0.11 0.10 0.09 0.14 0.19 0.08 0.09 0.13 0.07 0.01 0.01 0.06 0.03 0.02 0.01 0.02 0.05 0.06 0.04 0.02 0.03 0.03 0.01 0.07 0.13 0.01 0.02 0.01 0.01 0.00 0.00
0.00 0.00 0.00 0.00 0.00 0.00 0.00 0.00 0.00 0.00 0.00 0.00 0.00 0.00 0.00 0.00 0.01 0.04 0.07 0.16 0.06 0.08 0.16 0.35 0.23 0.15 0.11 0.05 0.05 0.05 0.07 0.02 0.02 0.02 0.03 0.05 0.05 0.05 0.04 0.02 0.02 0.08 0.20 0.28 0.03 0.02 0.04 0.00 0.00
0.00 0.00 0.00 0.00 0.00 0.00 0.00 0.00 0.00 0.00 0.00 0.00 0.00 0.00 0.00 0.00 0.00 0.00 0.01 0.07 0.08 0.04 0.19 0.26 0.15 0.12 0.06 0.08 0.09 0.09 0.07 0.03 0.02 0.03 0.02 0.03 0.05 0.06 0.04 0.02 0.02 0.02 0.07 0.08 0.10 0.01 0.00 0.00 0.00
0.00 0.00 0.00 0.00 0.00 0.00 0.00 0.00 0.00 0.00 0.00 0.00 0.00 0.00 0.00 0.00 0.00 0.00 0.00 0.02 0.01 0.05 0.08 0.29 0.19 0.06 0.09 0.19 0.17 0.16 0.05 0.03 0.04 0.03 0.03 0.03 0.05 0.03 0.02 0.02 0.04 0.12 0.22 0.15 0.02 0.00 0.00 0.00 0.00
0.00 0.00 0.00 0.00 0.00 0.00 0.00 0.00 0.00 0.00 0.00 0.00 0.00 0.00 0.00 0.00 0.00 0.00 0.00 0.01 0.03 0.04 0.09 0.21 0.32 0.21 0.16 0.15 0.16 0.18 0.15 0.06 0.05 0.03 0.03 0.06 0.07 0.02 0.02 0.07 0.14 0.17 0.09 0.00 0.00 0.00 0.00 0.00 0.00
0.00 0.00 0.00 0.00 0.00 0.00 0.00 0.00 0.00 0.00 0.00 0.00 0.00 0.00 0.00 0.00 0.00 0.00 0.00 0.01 0.05 0.08 0.08 0.10 0.12 0.17 0.05 0.12 0.16 0.13 0.19 0.21 0.20 0.19 0.17 0.16 0.16 0.07 0.08 0.19 0.11 0.07 0.03 0.00 0.00 0.00 0.00 0.00 0.00
0.00 0.00 0.00 0.00 0.00 0.00 0.00 0.00 0.00 0.00 0.00 0.00 0.00 0.00 0.00 0.00 0.00 0.00 0.00 0.00 0.01 0.03 0.03 0.01 0.00 0.03 0.08 0.12 0.22 0.20 0.28 0.28 0.31 0.31 0.33 0.38 0.37 0.16 0.19 0.16 0.10 0.05 0.01 0.00 0.00 0.00 0.00 0.00 0.00
0.00 0.00 0.00 0.00 0.00 0.00 0.00 0.00 0.00 0.00 0.00 0.00 0.00 0.00 0.00 0.00 0.00 0.00 0.00 0.00 0.00 0.03 0.05 0.02 0.04 0.06 0.07 0.11 0.16 0.15 0.18 0.19 0.10 0.20 0.28 0.26 0.23 0.15 0.04 0.04 0.09 0.03 0.00 0.00 0.00 0.00 0.00 0.00 0.00
0.00 0.00 0.00 0.00 0.00 0.00 0.00 0.00 0.00 0.00 0.00 0.00 0.00 0.00 0.00 0.00 0.00 0.00 0.00 0.00 0.00 0.00 0.00 0.04 0.05 0.05 0.06 0.12 0.11 0.07 0.10 0.05 0.06 0.10 0.07 0.04 0.12 0.12 0.10 0.07 0.05 0.00 0.00 0.00 0.00 0.00 0.00 0.00 0.00
0.00 0.00 0.00 0.00 0.00 0.00 0.00 0.00 0.00 0.00 0.00 0.00 0.00 0.00 0.00 0.00 0.00 0.00 0.00 0.00 0.00 0.00 0.00 0.00 0.02 0.07 0.08 0.04 0.02 0.00 0.00 0.01 0.03 0.05 0.02 0.00 0.03 0.09 0.14 0.08 0.01 0.00 0.00 0.00 0.00 0.00 0.00 0.00 0.00
0.00 0.00 0.00 0.00 0.00 0.00 0.00 0.00 0.00 0.00 0.00 0.00 0.00 0.00 0.00 0.00 0.00 0.00 0.00 0.00 0.00 0.00 0.00 0.00 0.00 0.00 0.01 0.04 0.01 0.00 0.00 0.00 0.00 0.00 0.00 0.00 0.00 0.03 0.04 0.01 0.00 0.00 0.00 0.00 0.00 0.00 0.00 0.00 0.00
0.00 0.00 0.00 0.00 0.00 0.00 0.00 0.00 0.00 0.00 0.00 0.00 0.00 0.00 0.00 0.00 0.00 0.00 0.00 0.00 0.00 0.00 0.00 0.00 0.00 0.00 0.00 0.01 0.02 0.00 0.00 0.01 0.00 0.00 0.00 0.00 0.00 0.00 0.00 0.00 0.00 0.00 0.00 0.00 0.00 0.00 0.00 0.00 0.00
0.00 0.00 0.00 0.00 0.00 0.00 0.00 0.00 0.00 0.00 0.00 0.00 0.00 0.00 0.00 0.00 0.00 0.00 0.00 0.00 0.00 0.00 0.00 0.00 0.00 0.00 0.00 0.02 0.01 0.02 0.01 0.01 0.00 0.00 0.00 0.00 0.00 0.00 0.00 0.00 0.00 0.00 0.00 0.00 0.00 0.00 0.00 0.00 0.00
0.00 0.00 0.00 0.00 0.00 0.00 0.00 0.00 0.00 0.00 0.00 0.00 0.00 0.00 0.00 0.00 0.00 0.00 0.00 0.00 0.00 0.00 0.00 0.00 0.00 0.00 0.00 0.01 0.02 0.05 0.08 0.02 0.01 0.01 0.00 0.00 0.00 0.00 0.00 0.01 0.00 0.00 0.00 0.00 0.00 0.00 0.00 0.00 0.00
0.00 0.00 0.00 0.00 0.00 0.00 0.00 0.00 0.00 0.00 0.00 0.00 0.00 0.00 0.00 0.00 0.00 0.00 0.00 0.00 0.00 0.00 0.00 0.00 0.00 0.00 0.00 0.00 0.01 0.02 0.08 0.08 0.04 0.05 0.02 0.01 0.00 0.00 0.00 0.00 0.00 0.00 0.00 0.00 0.00 0.00 0.00 0.00 0.00
0.00 0.00 0.00 0.00 0.00 0.00 0.00 0.00 0.00 0.00 0.00 0.00 0.00 0.00 0.00 0.00 0.00 0.00 0.00 0.00 0.00 0.00 0.00 0.00 0.00 0.00 0.00 0.01 0.00 0.01 0.03 0.05 0.05 0.02 0.01 0.01 0.00 0.00 0.00 0.00 0.00 0.00 0.00 0.00 0.00 0.00 0.00 0.00 0.00
0.00 0.00 0.00 0.00 0.00 0.00 0.00 0.00 0.00 0.00 0.00 0.00 0.00 0.00 0.00 0.00 0.00 0.00 0.00 0.00 0.00 0.00 0.00 0.00 0.00 0.00 0.00 0.00 0.00 0.00 0.01 0.02 0.03 0.02 0.00 0.00 0.00 0.00 0.00 0.00 0.00 0.00 0.00 0.00 0.00 0.00 0.00 0.00 0.00
0.00 0.00 0.00 0.00 0.00 0.00 0.00 0.00 0.00 0.00 0.00 0.00 0.00 0.00 0.00 0.00 0.00 0.00 0.00 0.00 0.00 0.00 0.00 0.00 0.00 0.00 0.00 0.00 0.00 0.00 0.01 0.01 0.02 0.01 0.00 0.00 0.00 0.01 0.02 0.01 0.01 0.00 0.00 0.00 0.00 0.00 0.00 0.00 0.00
0.00 0.00 0.00 0.00 0.00 0.00 0.00 0.00 0.00 0.00 0.00 0.00 0.00 0.00 0.00 0.00 0.00 0.00 0.00 0.00 0.00 0.00 0.00 0.00 0.00 0.00 0.00 0.00 0.00 0.00 0.00 0.00 0.01 0.00 0.00 0.01 0.01 0.01 0.03 0.02 0.01 0.00 0.00 0.00 0.00 0.00 0.00 0.00 0.00
0.00 0.00 0.00 0.00 0.00 0.00 0.00 0.00 0.00 0.00 0.00 0.00 0.00 0.00 0.00 0.00 0.00 0.00 0.00 0.00 0.00 0.00 0.00 0.00 0.00 0.00 0.00 0.00 0.00 0.00 0.00 0.00 0.00 0.00 0.00 0.00 0.00 0.00 0.01 0.01 0.01 0.00 0.00 0.00 0.00 0.00 0.00 0.00 0.00
0.00 0.00 0.00 0.00 0.00 0.00 0.00 0.00 0.00 0.00 0.00 0.00 0.00 0.00 0.00 0.00 0.00 0.00 0.00 0.00 0.00 0.00 0.00 0.00 0.00 0.00 0.00 0.00 0.00 0.00 0.00 0.00 0.00 0.00 0.00 0.00 0.01 0.00 0.00 0.00 0.00 0.00 0.00 0.00 0.00 0.00 0.00 0.00 0.00
0.00 0.00 0.00 0.00 0.00 0.00 0.00 0.00 0.00 0.00 0.00 0.00 0.00 0.00 0.00 0.00 0.00 0.00 0.00 0.00 0.00 0.00 0.00 0.00 0.00 0.00 0.00 0.00 0.00 0.00 0.00 0.00 0.00 0.00 0.00 0.00 0.00 0.00 0.00 0.00 0.00 0.00 0.00 0.00 0.00 0.00 0.00 0.00 0.00
0.00 0.00 0.00 0.00 0.00 0.00 0.00 0.00 0.00 0.00 0.00 0.00 0.00 0.00 0.00 0.00 0.00 0.00 0.00 0.00 0.00 0.00 0.00 0.00 0.00 0.00 0.00 0.00 0.00 0.00 0.00 0.00 0.00 0.00 0.00 0.01 0.01 0.00 0.00 0.00 0.00 0.00 0.00 0.00 0.00 0.00 0.00 0.00 0.00
0.00 0.00 0.00 0.00 0.00 0.00 0.00 0.00 0.00 0.00 0.00 0.00 0.00 0.00 0.00 0.00 0.00 0.00 0.00 0.00 0.00 0.00 0.00 0.00 0.00 0.00 0.00 0.00 0.00 0.00 0.00 0.00 0.00 0.00 0.01 0.02 0.00 0.00 0.00 0.00 0.00 0.00 0.00 0.00 0.00 0.00 0.00 0.00 0.00
0.00 0.00 0.00 0.00 0.00 0.00 0.00 0.00 0.00 0.00 0.00 0.00 0.00 0.00 0.00 0.00 0.00 0.00 0.00 0.00 0.00 0.00 0.00 0.00 0.00 0.00 0.00 0.00 0.00 0.00 0.00 0.00 0.00 0.00 0.00 0.00 0.00 0.00 0.00 0.00 0.00 0.00 0.00 0.00 0.00 0.00 0.00 0.00 0.00
0.00 0.00 0.00 0.00 0.00 0.00 0.00 0.00 0.00 0.00 0.00 0.00 0.00 0.00 0.00 0.00 0.00 0.00 0.00 0.00 0.00 0.00 0.00 0.00 0.00 0.00 0.00 0.00 0.00 0.00 0.00 0.00 0.00 0.00 0.00 0.00 0.00 0.00 0.00 0.00 0.00 0.00 0.00 0.00 0.00 0.00 0.00 0.00 0.00
0.00 0.00 0.00 0.00 0.00 0.00 0.00 0.00 0.00 0.00 0.00 0.00 0.00 0.00 0.00 0.00 0.00 0.00 0.00 0.00 0.00 0.00 0.00 0.00 0.00 0.00 0.00 0.00 0.00 0.00 0.00 0.00 0.00 0.00 0.00 0.00 0.00 0.00 0.00 0.00 0.00 0.00 0.00 0.00 0.00 0.00 0.00 0.00 0.00
0.00 0.00 0.00 0.00 0.00 0.00 0.00 0.00 0.00 0.00 0.00 0.00 0.00 0.00 0.00 0.00 0.00 0.00 0.00 0.00 0.00 0.00 0.00 0.00 0.00 0.00 0.00 0.00 0.00 0.00 0.00 0.00 0.00 0.00 0.00 0.00 0.00 0.00 0.00 0.00 0.00 0.00 0.00 0.00 0.00 0.00 0.00 0.00 0.00
0.00 0.00 0.00 0.00 0.00 0.00 0.00 0.00 0.00 0.00 0.00 0.00 0.00 0.00 0.00 0.00 0.00 0.00 0.00 0.00 0.00 0.00 0.00 0.00 0.00 0.00 0.00 0.00 0.00 0.00 0.00 0.00 0.00 0.00 0.00 0.00 0.00 0.00 0.00 0.00 0.00 0.00 0.00 0.00 0.00 0.00 0.00 0.00 0.00
MSLP
1015.32 1014.59 1014.42 1014.52 1015.70 1016.64 1017.01 1017.20 1016.02 1015.50 1015.24 1014.98 1014.69 1014.72 1014.95 1014.96 1015.16 1015.51 1014.65 1014.07 1013.83 1013.57 1012.57 1013.21 1013.23 1013.25 1013.28 1013.42 1013.79 1013.95 1013.86 1014.10 1014.11 1014.22 1014.44 1014.68 1014.76 1014.89 1015.12 1015.26 1015.38 1015.46 1015.44 1015.60 1015.82 1016.00 1016.29 1016.48 1016.56
1015.55 1014.85 1014.59 1015.42 1016.42 1017.44 1017.76 1017.23 1016.52 1016.05 1015.65 1015.00 1014.64 1014.42 1014.49 1015.15 1014.76 1014.74 1014.55 1014.21 1013.74 1013.52 1013.03 1013.28 1013.41 1013.40 1013.72 1013.63 1013.55 1013.89 1013.78 1014.22 1014.20 1014.25 1014.41 1014.64 1014.78 1014.77 1014.96 1015.19 1015.40 1015.52 1015.54 1015.62 1015.91 1016.25 1016.49 1016.67 1016.78
1015.54 1015.38 1016.10 1016.40 1016.97 1017.46 1017.36 1017.15 1016.73 1016.10 1015.41 1015.30 1015.08 1014.54 1015.03 1015.93 1015.51 1015.35 1015.34 1014.54 1014.14 1013.68 1013.59 1013.67 1013.81 1013.73 1013.68 1013.66 1013.83 1013.54 1013.78 1014.26 1014.31 1014.38 1014.36 1014.63 1014.82 1014.82 1014.94 1015.08 1015.32 1015.52 1015.64 1015.73 1016.11 1016.36 1016.44 1016.86 1017.01
1015.77 1015.73 1016.35 1016.80 1017.48 1017.30 1017.23 1017.09 1016.64 1016.38 1015.86 1015.70 1015.45 1015.75 1016.14 1016.29 1015.86 1015.56 1015.08 1014.39 1014.28 1014.14 1014.11 1013.68 1013.49 1013.59 1014.03 1013.98 1013.90 1014.04 1013.63 1013.91 1014.32 1014.44 1014.42 1014.51 1014.70 1014.82 1014.96 1015.12 1015.26 1015.44 1015.70 1016.03 1016.41 1016.49 1016.44 1017.07 1017.23
1016.13 1016.68 1017.19 1017.43 1017.25 1017.50 1017.16 1016.89 1016.74 1017.06 1016.74 1016.49 1016.02 1016.40 1016.79 1016.51 1016.00 1015.51 1015.13 1014.92 1014.69 1014.43 1014.19 1014.44 1013.92 1013.74 1013.97 1014.35 1014.24 1014.34 1013.95 1014.02 1014.27 1014.28 1014.40 1014.52 1014.59 1014.79 1014.95 1015.15 1015.34 1015.66 1015.94 1016.23 1016.42 1016.67 1016.94 1017.24 1017.42
1017.07 1017.40 1018.12 1018.18 1017.84 1017.51 1017.30 1017.11 1017.11 1017.35 1017.39 1016.98 1016.73 1016.78 1017.19 1016.72 1016.06 1015.86 1015.45 1015.47 1015.12 1014.81 1014.59 1014.39 1014.22 1014.34 1014.22 1014.45 1014.61 1014.67 1014.29 1014.01 1014.12 1014.21 1014.44 1014.45 1014.56 1014.63 1014.90 1015.19 1015.53 1015.86 1016.12 1016.40 1016.65 1017.00 1017.32 1017.53 1017.67
1017.88 1018.25 1018.72 1018.27 1017.94 1017.60 1017.58 1017.29 1017.60 1017.73 1017.58 1017.44 1017.35 1017.33 1017.41 1017.14 1016.68 1016.28 1016.44 1016.14 1015.82 1015.56 1015.15 1014.65 1014.44 1014.24 1014.61 1015.19 1014.80 1014.86 1014.73 1014.58 1014.77 1014.83 1014.80 1014.76 1014.63 1014.65 1015.05 1015.42 1015.62 1015.95 1016.36 1016.70 1017.03 1017.31 1017.62 1017.77 1017.94
1017.86 1018.69 1018.70 1018.54 1018.49 1018.52 1018.09 1017.90 1017.86 1017.93 1017.86 1017.26 1016.98 1017.61 1018.25 1017.99 1017.11 1016.77 1016.94 1017.01 1016.78 1016.31 1016.14 1015.57 1014.86 1015.13 1015.53 1015.20 1015.45 1014.47 1015.39 1016.02 1015.78 1015.89 1016.40 1016.11 1015.33 1015.05 1015.27 1015.76 1015.77 1015.87 1016.62 1017.03 1017.42 1017.69 1017.94 1018.03 1018.20
1017.71 1018.78 1019.20 1019.05 1018.86 1019.15 1018.71 1018.64 1018.31 1017.85 1017.93 1017.93 1018.08 1018.30 1018.60 1017.97 1017.38 1017.37 1017.63 1017.80 1017.73 1017.43 1016.93 1016.59 1015.47 1015.84 1015.82 1015.70 1015.69 1015.40 1014.80 1015.84 1016.72 1016.54 1016.74 1017.18 1016.64 1015.62 1015.56 1016.27 1016.49 1016.65 1016.80 1017.24 1017.71 1018.07 1018.34 1018.44 1018.51
1018.47 1019.29 1019.40 1019.21 1019.28 1019.45 1019.15 1019.25 1019.26 1018.93 1018.83 1018.68 1018.40 1018.15 1017.99 1017.94 1018.47 1018.78 1018.82 1018.92 1018.67 1018.38 1017.82 1017.36 1016.82 1016.36 1016.07 1015.99 1015.89 1015.58 1016.06 1015.60 1016.33 1017.09 1016.85 1016.56 1017.29 1017.45 1016.51 1016.88 1017.23 1017.29 1017.39 1017.62 1017.92 1018.25 1018.59 1018.78 1018.91
1019.20 1019.39 1019.40 1019.53 1019.33 1019.43 1019.76 1019.84 1019.77 1019.57 1019.38 1019.33 1019.30 1019.10 1018.82 1019.02 1019.31 1019.64 1019.84 1019.80 1019.56 1019.26 1018.61 1018.30 1017.77 1017.26 1016.43 1016.26 1016.02 1016.18 1016.14 1016.29 1016.50 1016.21 1016.72 1016.70 1016.33 1017.31 1018.74 1017.76 1018.43 1018.21 1018.15 1018.34 1018.59 1018.76 1018.92 1019.02 1019.14
1019.72 1019.71 1019.57 1019.61 1019.87 1020.03 1020.19 1020.06 1020.09 1019.84 1019.59 1019.30 1019.22 1019.13 1019.37 1019.82 1019.96 1020.10 1020.38 1020.33 1019.95 1019.50 1019.05 1018.51 1017.94 1017.55 1016.73 1016.35 1016.30 1016.19 1015.93 1016.26 1016.18 1016.05 1016.48 1016.04 1016.13 1016.87 1019.00 1020.23 1018.97 1019.14 1018.94 1019.00 1019.18 1019.24 1019.32 1019.44 1019.44
1019.99 1020.17 1020.12 1019.86 1019.84 1019.94 1020.09 1020.26 1020.35 1019.98 1019.57 1019.34 1019.19 1019.23 1019.81 1020.11 1020.41 1020.57 1020.68 1020.63 1020.42 1019.89 1019.33 1018.76 1018.07 1017.54 1017.01 1016.17 1016.27 1016.34 1016.13 1016.03 1016.27 1016.71 1016.88 1016.64 1016.62 1017.18 1018.78 1019.92 1019.46 1019.21 1019.42 1019.37 1019.69 1019.84 1019.88 1019.98 1019.99
1020.54 1020.33 1020.14 1019.96 1019.84 1019.86 1020.12 1020.38 1020.48 1019.84 1019.60 1019.43 1019.47 1019.77 1020.28 1020.49 1020.99 1021.13 1021.15 1021.06 1020.65 1020.28 1019.60 1018.88 1018.18 1017.50 1017.00 1016.47 1015.97 1016.20 1016.13 1016.13 1016.36 1016.60 1017.04 1017.05 1017.36 1017.62 1018.78 1019.64 1019.89 1019.66 1019.61 1019.78 1019.90 1020.43 1020.35 1020.60 1020.75
1020.79 1020.75 1020.38 1019.81 1019.82 1020.22 1020.30 1020.41 1020.42 1019.85 1019.71 1019.83 1020.18 1020.41 1020.68 1021.10 1021.50 1021.94 1021.88 1021.55 1021.08 1020.61 1019.90 1019.04 1018.24 1017.42 1017.15 1016.34 1015.66 1015.68 1016.20 1016.27 1016.39 1016.80 1017.10 1017.14 1017.96 1017.90 1018.21 1019.19 1019.88 1020.21 1020.08 1019.75 1020.13 1020.73 1021.04 1021.10 1021.25
1021.54 1021.51 1021.42 1020.40 1020.15 1020.53 1020.71 1020.76 1020.34 1020.22 1020.16 1020.34 1020.52 1020.90 1021.23 1021.83 1022.22 1022.27 1022.22 1022.04 1021.47 1020.94 1020.27 1019.47 1018.66 1017.85 1017.31 1016.24 1015.51 1015.58 1015.77 1016.39 1016.48 1016.67 1017.14 1017.16 1017.91 1018.18 1018.07 1018.96 1019.68 1019.81 1020.51 1020.14 1020.47 1020.97 1021.59 1021.79 1021.76
1022.38 1022.48 1022.02 1021.24 1020.82 1020.98 1021.24 1021.00 1020.63 1020.42 1020.58 1020.90 1021.08 1021.47 1021.76 1022.32 1022.70 1022.85 1022.77 1022.51 1022.01 1021.48 1020.78 1019.79 1019.02 1018.37 1017.74 1016.62 1016.08 1016.03 1015.92 1016.09 1016.62 1016.74 1016.88 1017.49 1018.03 1018.33 1018.30 1018.69 1019.66 1019.59 1020.00 1020.53 1020.61 1020.76 1021.72 1022.02 1022.34
1023.37 1023.29 1022.93 1022.39 1021.77 1021.54 1021.57 1021.21 1021.14 1020.76 1020.97 1021.26 1021.48 1021.92 1022.36 1022.67 1023.34 1023.29 1023.23 1023.00 1022.49 1021.83 1021.19 1020.40 1019.49 1018.87 1018.23 1017.30 1016.73 1016.61 1016.57 1016.60 1016.78 1016.86 1016.96 1017.56 1017.91 1018.45 1018.75 1019.20 1019.99 1019.92 1020.42 1021.13 1021.00 1021.35 1021.68 1021.95 1022.52
1023.92 1023.72 1023.63 1022.96 1022.19 1022.14 1022.05 1022.08 1021.42 1020.65 1021.00 1021.41 1021.97 1022.68 1023.00 1023.30 1023.70 1023.73 1023.80 1023.54 1023.05 1022.29 1021.61 1020.92 1020.29 1019.63 1018.94 1018.20 1017.33 1017.14 1017.23 1017.29 1017.24 1017.31 1017.52 1017.72 1018.04 1018.31 1018.97 1019.27 1019.87 1019.93 1020.37 1021.38 1021.31 1021.50 1021.55 1022.33 1022.49
1024.38 1024.28 1024.07 1023.32 1022.87 1023.00 1022.43 1022.31 1021.44 1020.96 1020.91 1021.13 1022.53 1023.16 1023.62 1023.93 1024.13 1024.26 1024.34 1024.11 1023.61 1023.00 1022.24 1021.50 1021.02 1020.33 1019.59 1019.04 1018.41 1017.91 1017.75 1017.82 1017.83 1017.87 1018.05 1018.17 1018.43 1018.58 1018.85 1019.15 1019.81 1020.07 1020.40 1021.13 1021.41 1021.50 1021.94 1022.02 1022.09
1024.72 1024.98 1024.98 1024.99 1024.28 1023.92 1023.48 1023.01 1022.11 1021.40 1022.02 1022.47 1022.91 1023.34 1023.80 1024.23 1024.60 1024.78 1024.75 1024.67 1024.14 1023.56 1022.92 1022.15 1021.61 1021.00 1020.31 1019.56 1018.94 1018.29 1018.10 1018.18 1018.36 1018.43 1018.56 1018.69 1018.82 1019.04 1018.96 1019.37 1019.77 1020.20 1020.28 1020.95 1021.65 1021.50 1021.72 1021.79 1021.94
1025.13 1025.30 1025.45 1025.65 1025.83 1025.95 1025.50 1024.72 1023.45 1022.33 1022.78 1023.14 1023.23 1023.49 1023.90 1024.35 1024.78 1025.00 1025.09 1025.02 1024.69 1024.23 1023.59 1023.00 1022.33 1021.70 1021.01 1020.31 1019.79 1019.56 1019.25 1019.07 1019.21 1019.00 1018.92 1018.96 1019.11 1019.27 1019.20 1019.62 1019.86 1020.33 1020.43 1021.00 1021.54 1021.66 1021.50 1021.88 1021.81
1025.34 1025.65 1025.97 1026.30 1026.82 1027.12 1026.55 1026.13 1023.88 1023.14 1023.25 1023.47 1023.54 1023.78 1024.17 1024.44 1024.78 1025.12 1025.27 1025.33 1025.15 1024.81 1024.38 1023.77 1023.24 1022.60 1022.01 1021.28 1020.73 1020.44 1020.28 1019.98 1019.69 1019.52 1019.45 1019.40 1019.50 1019.60 1019.60 1019.75 1019.90 1020.49 1020.57 1021.01 1021.40 1021.83 1021.55 1021.80 1022.01
1025.47 1026.03 1026.59 1027.15 1028.07 1028.63 1027.65 1026.96 1025.00 1023.92 1023.37 1023.21 1023.53 1024.08 1024.36 1024.63 1025.06 1025.20 1025.34 1025.45 1025.49 1025.26 1024.87 1024.41 1023.94 1023.49 1022.96 1022.36 1021.78 1021.36 1021.16 1020.88 1020.50 1019.96 1019.85 1019.84 1019.87 1019.98 1019.96 1019.96 1020.11 1020.52 1020.92 1021.23 1021.65 1021.83 1021.75 1021.98 1021.91
1026.13 1027.19 1028.40 1029.48 1030.04 1029.47 1027.62 1026.89 1024.58 1023.78 1023.51 1023.62 1024.05 1024.68 1024.84 1024.98 1025.29 1025.53 1025.60 1025.63 1025.63 1025.59 1025.41 1024.92 1024.63 1024.28 1023.79 1023.38 1022.89 1022.43 1022.03 1021.86 1021.49 1021.08 1020.56 1020.32 1020.19 1020.10 1019.93 1020.13 1020.41 1020.57 1020.76 1021.31 1021.69 1021.75 1021.93 1021.96 1021.89
1026.97 1028.08 1029.83 1031.30 1031.78 1029.85 1028.49 1026.62 1024.75 1023.90 1023.91 1023.79 1023.78 1024.70 1025.43 1025.66 1025.62 1025.70 1025.63 1025.74 1025.84 1025.71 1025.50 1025.37 1025.14 1024.85 1024.48 1024.11 1023.74 1023.34 1022.94 1022.60 1022.47 1022.18 1021.50 1021.70 1021.19 1020.74 1020.04 1020.06 1020.45 1020.67 1020.93 1021.34 1021.58 1021.68 1021.99 1021.92 1021.83
1027.63 1028.59 1029.56 1031.10 1032.16 1031.33 1028.77 1026.46 1024.92 1024.08 1024.26 1024.17 1024.59 1025.14 1025.48 1025.66 1025.70 1025.75 1025.80 1025.76 1025.74 1025.75 1025.72 1025.54 1025.44 1025.32 1024.97 1024.73 1024.40 1024.05 1023.73 1023.39 1023.30 1023.09 1022.79 1022.41 1022.09 1021.68 1020.97 1020.34 1020.56 1020.68 1020.88 1021.16 1021.36 1021.43 1021.72 1021.96 1021.87
1028.02 1029.08 1030.31 1032.04 1033.25 1032.23 1029.46 1027.36 1025.75 1025.02 1024.68 1024.82 1025.17 1025.35 1025.44 1025.45 1025.61 1025.67 1025.70 1025.70 1025.63 1025.68 1025.71 1025.64 1025.56 1025.53 1025.43 1025.12 1024.80 1024.66 1024.49 1024.22 1023.96 1023.85 1023.78 1023.51 1022.92 1022.58 1022.01 1021.48 1020.96 1020.63 1020.96 1021.23 1021.35 1021.47 1021.75 1021.76 1021.87
1028.88 1029.73 1031.02 1032.13 1032.96 1032.74 1031.19 1027.39 1025.66 1025.49 1025.78 1025.88 1025.78 1025.60 1025.21 1025.11 1025.21 1025.32 1025.57 1025.69 1025.68 1025.85 1025.87 1025.81 1025.75 1025.65 1025.61 1025.46 1025.23 1025.04 1024.91 1024.73 1024.48 1024.32 1024.15 1023.98 1023.72 1023.31 1022.74 1022.38 1021.91 1021.63 1021.39 1021.26 1021.41 1021.58 1021.70 1021.87 1021.82
1029.24 1030.08 1031.14 1032.72 1033.12 1032.57 1031.06 1026.93 1026.09 1026.13 1026.26 1026.32 1026.39 1025.90 1025.29 1024.75 1025.02 1025.22 1025.54 1025.76 1025.71 1026.02 1026.22 1026.38 1026.18 1026.15 1026.07 1025.85 1025.58 1025.39 1025.31 1025.25 1025.03 1024.79 1024.61 1024.38 1024.11 1023.74 1023.33 1023.14 1022.71 1022.46 1022.17 1021.72 1021.62 1021.74 1021.67 1021.79 1021.87
Thickness
5694 5698 5696 5687 5653 5638 5632 5638 5653 5650 5652 5663 5665 5661 5652 5656 5651 5635 5671 5679 5682 5686 5689 5691 5691 5693 5690 5692 5693 5692 5695 5694 5695 5695 5693 5693 5693 5693 5691 5691 5692 5692 5691 5690 5689 5689 5687 5686 5685
5689 5691 5688 5667 5636 5617 5620 5638 5639 5646 5653 5663 5661 5661 5655 5649 5664 5665 5666 5672 5677 5681 5685 5683 5685 5686 5684 5684 5688 5688 5692 5689 5690 5691 5691 5690 5690 5692 5690 5689 5688 5688 5688 5688 5686 5684 5682 5682 5681
5685 5683 5663 5647 5630 5619 5624 5638 5637 5647 5654 5653 5654 5661 5652 5641 5654 5657 5659 5667 5671 5678 5679 5677 5675 5677 5678 5680 5680 5686 5686 5682 5684 5685 5687 5687 5686 5688 5687 5687 5685 5684 5684 5683 5681 5681 5679 5676 5676
5676 5671 5660 5634 5635 5639 5638 5636 5640 5640 5647 5646 5650 5635 5642 5647 5649 5654 5659 5665 5668 5671 5671 5668 5673 5666 5667 5671 5676 5678 5682 5680 5679 5680 5682 5683 5683 5684 5684 5683 5682 5682 5681 5678 5675 5676 5675 5671 5672
5669 5655 5635 5633 5641 5638 5635 5639 5640 5630 5630 5633 5640 5624 5625 5639 5649 5654 5655 5658 5659 5663 5664 5656 5663 5665 5662 5660 5666 5666 5672 5675 5675 5677 5678 5679 5680 5679 5679 5678 5678 5677 5674 5673 5671 5670 5669 5668 5668
5649 5643 5619 5614 5629 5634 5632 5636 5634 5624 5623 5627 5627 5622 5620 5636 5641 5645 5649 5649 5652 5655 5655 5655 5655 5655 5655 5654 5655 5658 5666 5670 5673 5674 5673 5675 5675 5676 5674 5674 5674 5671 5669 5667 5665 5663 5662 5661 5662
5643 5628 5619 5626 5621 5625 5628 5634 5623 5620 5616 5618 5622 5615 5619 5625 5632 5635 5636 5638 5641 5642 5644 5648 5648 5646 5646 5646 5651 5656 5660 5663 5664 5661 5662 5665 5669 5670 5668 5667 5667 5664 5660 5658 5657 5657 5656 5656 5656
5637 5625 5630 5625 5613 5616 5624 5626 5627 5621 5616 5628 5629 5610 5601 5611 5623 5628 5627 5624 5626 5630 5630 5635 5640 5637 5634 5641 5642 5654 5647 5643 5648 5647 5646 5649 5655 5659 5660 5657 5658 5657 5651 5650 5649 5649 5649 5650 5649
5645 5613 5608 5614 5615 5610 5616 5613 5618 5623 5617 5615 5613 5610 5607 5609 5616 5616 5614 5611 5610 5613 5615 5621 5630 5625 5625 5628 5629 5635 5640 5635 5631 5634 5635 5632 5638 5646 5649 5646 5644 5644 5644 5643 5642 5640 5640 5641 5643
5625 5605 5612 5619 5613 5605 5610 5607 5605 5606 5602 5603 5604 5609 5611 5608 5602 5598 5598 5597 5597 5598 5602 5607 5612 5615 5617 5617 5618 5624 5618 5624 5626 5621 5626 5630 5622 5619 5630 5632 5630 5631 5633 5633 5633 5632 5632 5634 5635
5617 5609 5616 5611 5612 5609 5602 5600 5599 5596 5596 5596 5595 5596 5600 5596 5591 5587 5585 5585 5585 5585 5590 5592 5598 5602 5608 5609 5611 5611 5611 5609 5609 5615 5616 5616 5615 5614 5604 5614 5610 5616 5620 5621 5622 5625 5625 5627 5629
5609 5614 5614 5611 5604 5601 5595 5597 5591 5594 5595 5596 5595 5596 5592 5586 5583 5581 5576 5575 5577 5579 5581 5585 5590 5594 5600 5603 5605 5606 5609 5604 5607 5612 5611 5615 5618 5615 5592 5585 5598 5599 5605 5609 5611 5614 5616 5618 5621
5608 5603 5604 5604 5602 5600 5596 5590 5589 5586 5589 5593 5592 5590 5584 5579 5577 5573 5569 5568 5567 5571 5574 5577 5582 5586 5591 5597 5598 5598 5601 5600 5599 5599 5599 5604 5608 5605 5589 5581 5588 5593 5594 5600 5600 5602 5605 5608 5610
5601 5599 5597 5599 5599 5599 5592 5584 5586 5589 5587 5587 5586 5582 5574 5572 5567 5561 5559 5558 5560 5562 5565 5570 5573 5578 5584 5588 5593 5593 5595 5594 5593 5593 5590 5592 5591 5593 5586 5580 5579 5583 5586 5588 5591 5590 5596 5596 5598
5597 5591 5591 5594 5593 5588 5586 5580 5578 5582 5584 5580 5573 5570 5565 5560 5554 5548 5547 5548 5550 5552 5556 5561 5566 5568 5570 5579 5585 5589 5586 5587 5585 5583 5581 5583 5578 5580 5583 5578 5572 5572 5575 5580 5581 5580 5581 5585 5587
5584 5582 5571 5590 5587 5582 5577 5566 5576 5577 5576 5572 5567 5560 5555 5546 5542 5540 5538 5537 5540 5542 5545 5549 5553 5554 5556 5568 5576 5580 5581 5577 5578 5577 5574 5576 5573 5573 5578 5573 5568 5568 5564 5570 5570 5570 5568 5571 5575
5568 5562 5570 5575 5580 5573 5570 5564 5569 5570 5565 5559 5554 5548 5543 5535 5529 5526 5526 5526 5528 5530 5533 5539 5542 5542 5544 5553 5561 5566 5571 5572 5570 5569 5569 5566 5565 5567 5569 5569 5562 5564 5562 5560 5564 5565 5559 5560 5562
5559 5557 5555 5554 5565 5564 5557 5557 5558 5560 5553 5548 5549 5538 5528 5524 5517 5515 5514 5515 5516 5519 5522 5526 5532 5534 5537 5543 5549 5554 5558 5559 5561 5562 5562 5560 5560 5560 5559 5556 5553 5555 5552 5548 5552 5553 5552 5554 5555
5552 5549 5539 5541 5552 5547 5544 5538 5546 5555 5548 5539 5536 5520 5514 5510 5506 5503 5500 5501 5503 5508 5511 5516 5518 5521 5526 5531 5539 5542 5545 5546 5549 5552 5552 5553 5554 5555 5552 5550 5547 5549 5548 5540 5543 5545 5546 5544 5547
5540 5536 5524 5537 5544 5537 5538 5539 5547 5549 5545 5533 5515 5505 5501 5496 5492 5489 5485 5485 5488 5492 5497 5503 5505 5508 5513 5517 5523 5527 5531 5533 5535 5538 5540 5542 5544 5546 5546 5544 5540 5541 5541 5537 5536 5538 5537 5539 5543
5530 5528 5517 5517 5521 5520 5517 5509 5533 5541 5517 5508 5501 5499 5491 5483 5477 5474 5472 5470 5474 5477 5481 5488 5492 5495 5499 5505 5510 5515 5519 5520 5522 5524 5528 5530 5533 5535 5537 5536 5533 5533 5536 5533 5527 5531 5532 5534 5536
5518 5518 5515 5509 5494 5480 5498 5458 5507 5526 5505 5495 5492 5483 5477 5471 5466 5461 5458 5457 5458 5462 5466 5471 5476 5481 5486 5491 5495 5497 5500 5505 5506 5510 5516 5520 5521 5523 5528 5526 5525 5524 5527 5525 5521 5522 5526 5526 5531
5513 5510 5505 5502 5487 5473 5475 5445 5474 5507 5503 5491 5476 5470 5465 5459 5453 5450 5445 5444 5443 5445 5448 5452 5457 5463 5469 5474 5479 5482 5483 5488 5493 5497 5500 5506 5509 5511 5514 5517 5519 5516 5517 5516 5516 5515 5519 5519 5521
5504 5498 5486 5483 5465 5396 5459 5456 5460 5470 5483 5483 5470 5456 5454 5446 5440 5436 5434 5430 5427 5428 5431 5435 5439 5444 5450 5456 5462 5466 5468 5472 5476 5484 5488 5493 5497 5499 5502 5505 5508 5507 5507 5508 5507 5508 5511 5511 5514
5486 5462 5398 5406 5392 5407 5460 5447 5464 5467 5462 5465 5453 5438 5432 5431 5423 5420 5418 5415 5414 5412 5414 5419 5422 5426 5430 5436 5443 5448 5453 5455 5460 5465 5473 5480 5486 5489 5493 5494 5495 5496 5499 5498 5499 5502 5503 5505 5507
5474 5452 5394 5369 5389 5427 5455 5427 5455 5457 5449 5442 5439 5423 5415 5410 5410 5409 5406 5401 5400 5400 5402 5403 5406 5409 5413 5418 5424 5430 5435 5441 5443 5448 5456 5458 5468 5474 5481 5482 5482 5485 5486 5488 5490 5493 5494 5498 5502
5456 5429 5443 5376 5357 5370 5421 5441 5444 5441 5435 5433 5422 5411 5405 5400 5396 5397 5394 5390 5389 5389 5389 5391 5392 5394 5398 5402 5407 5413 5418 5424 5427 5432 5439 5445 5449 5455 5464 5468 5469 5473 5477 5479 5482 5486 5487 5488 5493
5447 5436 5393 5361 5332 5329 5399 5426 5413 5431 5424 5409 5403 5396 5390 5388 5383 5381 5380 5379 5379 5379 5378 5378 5379 5381 5384 5388 5394 5397 5401 5406 5412 5415 5419 5425 5431 5436 5444 5451 5457 5463 5465 5467 5471 5474 5476 5480 5483
5408 5391 5395 5394 5381 5335 5336 5411 5419 5411 5391 5384 5378 5376 5375 5374 5372 5370 5368 5366 5366 5365 5365 5365 5366 5368 5371 5374 5379 5384 5387 5391 5397 5401 5405 5410 5416 5421 5428 5433 5441 5447 5451 5455 5459 5462 5466 5469 5474
5420 5411 5397 5355 5369 5363 5347 5396 5414 5397 5378 5363 5360 5360 5364 5366 5360 5359 5355 5353 5354 5352 5350 5349 5352 5353 5354 5358 5362 5367 5372 5377 5382 5387 5392 5397 5402 5409 5416 5419 5424 5430 5435 5442 5446 5450 5455 5459 5463